Stündliche Wetter Dziady

Heute, 14 Juni, Montag

Zeit Temperatur Niederschläge Wind Luftdruck Luftfeuchtigkeit
00:00 +8°C° 0 mm 4 m/S 743 mmHg 87%
01:00 +8°C° 0 mm 4 m/S 743 mmHg 90%
02:00 +8°C° 0 mm 3 m/S 743 mmHg 91%
03:00 +8°C° 0 mm 3 m/S 743 mmHg 93%
04:00 +7°C° 0 mm 2 m/S 743 mmHg 95%
05:00 +9°C° 0 mm 3 m/S 744 mmHg 87%
06:00 +11°C° 0 mm 3 m/S 744 mmHg 80%
07:00 +13°C° 0 mm 3 m/S 744 mmHg 72%
08:00 +14°C° 0 mm 4 m/S 744 mmHg 66%
09:00 +17°C° 0 mm 4 m/S 744 mmHg 60%
10:00 +18°C° 0 mm 4 m/S 744 mmHg 55%
11:00 +19°C° 0 mm 4 m/S 743 mmHg 52%
12:00 +20°C° 0 mm 4 m/S 743 mmHg 50%
13:00 +21°C° 0 mm 4 m/S 743 mmHg 47%
14:00 +21°C° 0 mm 4 m/S 743 mmHg 47%
15:00 +21°C° 0 mm 3 m/S 742 mmHg 47%
16:00 +21°C° 0 mm 3 m/S 742 mmHg 47%
17:00 +20°C° 0 mm 3 m/S 742 mmHg 54%
18:00 +19°C° 0 mm 2 m/S 742 mmHg 60%
19:00 +17°C° 0 mm 2 m/S 742 mmHg 67%
20:00 +16°C° 0 mm 1 m/S 742 mmHg 69%
21:00 +15°C° 0 mm 1 m/S 742 mmHg 72%
22:00 +13°C° 0 mm 0 m/S 742 mmHg 75%
23:00 +12°C° 0 mm 0 m/S 742 mmHg 77%

Morgen, 15 Juni, Dienstag

Zeit Temperatur Niederschläge Wind Luftdruck Luftfeuchtigkeit
00:00 +12°C° 0 mm 0 m/S 742 mmHg 78%
01:00 +13°C° 0 mm 1 m/S 741 mmHg 80%
02:00 +12°C° 0 mm 1 m/S 741 mmHg 81%
03:00 +12°C° 0 mm 1 m/S 742 mmHg 81%
04:00 +12°C° 0 mm 1 m/S 742 mmHg 82%
05:00 +14°C° 0 mm 1 m/S 742 mmHg 77%
06:00 +15°C° 0 mm 2 m/S 742 mmHg 71%
07:00 +17°C° 0 mm 2 m/S 742 mmHg 66%
08:00 +18°C° 0 mm 2 m/S 742 mmHg 61%
09:00 +19°C° 0 mm 2 m/S 742 mmHg 57%
10:00 +21°C° 0 mm 2 m/S 742 mmHg 52%
11:00 +21°C° 0 mm 2 m/S 741 mmHg 50%
12:00 +23°C° 0 mm 2 m/S 741 mmHg 48%
13:00 +24°C° 0 mm 2 m/S 741 mmHg 46%
14:00 +24°C° 0 mm 2 m/S 741 mmHg 47%
15:00 +24°C° 0 mm 2 m/S 741 mmHg 49%
16:00 +24°C° 0 mm 2 m/S 740 mmHg 50%
17:00 +23°C° 0 mm 2 m/S 740 mmHg 57%
18:00 +22°C° 0 mm 1 m/S 740 mmHg 63%
19:00 +21°C° 0 mm 1 m/S 740 mmHg 70%
20:00 +20°C° 0 mm 1 m/S 740 mmHg 73%
21:00 +19°C° 0 mm 1 m/S 740 mmHg 75%
22:00 +18°C° 0 mm 2 m/S 741 mmHg 78%
23:00 +18°C° 0 mm 1 m/S 741 mmHg 82%

übermorgen, 16 Juni, Mittwoch

Zeit Temperatur Niederschläge Wind Luftdruck Luftfeuchtigkeit
00:00 +16°C° 0 mm 1 m/S 741 mmHg 86%
01:00 +16°C° 0 mm 1 m/S 741 mmHg 89%
02:00 +15°C° 0 mm 1 m/S 741 mmHg 91%
03:00 +15°C° 0 mm 1 m/S 741 mmHg 93%
04:00 +14°C° 0 mm 1 m/S 741 mmHg 95%
05:00 +16°C° 0 mm 2 m/S 741 mmHg 91%
06:00 +17°C° 0 mm 2 m/S 742 mmHg 87%
07:00 +18°C° 0 mm 3 m/S 742 mmHg 83%
08:00 +19°C° 0 mm 3 m/S 742 mmHg 79%
09:00 +20°C° 0 mm 3 m/S 742 mmHg 75%
10:00 +20°C° 0 mm 3 m/S 742 mmHg 71%
11:00 +21°C° 0 mm 3 m/S 742 mmHg 67%
12:00 +22°C° 0 mm 3 m/S 742 mmHg 63%
13:00 +24°C° 0 mm 3 m/S 742 mmHg 59%
14:00 +24°C° 0 mm 3 m/S 742 mmHg 59%
15:00 +24°C° 0 mm 3 m/S 742 mmHg 60%
16:00 +24°C° 0 mm 3 m/S 742 mmHg 60%
17:00 +22°C° 0 mm 3 m/S 742 mmHg 64%
18:00 +21°C° 0 mm 3 m/S 742 mmHg 68%
19:00 +20°C° 0 mm 3 m/S 742 mmHg 72%
20:00 +19°C° 0 mm 3 m/S 742 mmHg 72%
21:00 +17°C° 0 mm 3 m/S 742 mmHg 72%
22:00 +16°C° 0 mm 3 m/S 742 mmHg 73%
23:00 +15°C° 0 mm 2 m/S 742 mmHg 74%

17 Juni, Donnerstag

Zeit Temperatur Niederschläge Wind Luftdruck Luftfeuchtigkeit
00:00 +15°C° 0 mm 2 m/S 742 mmHg 75%
01:00 +14°C° 0 mm 2 m/S 743 mmHg 77%
02:00 +13°C° 0 mm 2 m/S 742 mmHg 77%
03:00 +13°C° 0 mm 2 m/S 742 mmHg 78%
04:00 +13°C° 0 mm 2 m/S 742 mmHg 79%
05:00 +15°C° 0 mm 2 m/S 743 mmHg 73%
06:00 +16°C° 0 mm 3 m/S 743 mmHg 68%
07:00 +18°C° 0 mm 3 m/S 743 mmHg 62%
08:00 +20°C° 0 mm 3 m/S 743 mmHg 57%
09:00 +21°C° 0 mm 3 m/S 743 mmHg 53%
10:00 +23°C° 0 mm 4 m/S 743 mmHg 48%
11:00 +23°C° 0 mm 4 m/S 743 mmHg 45%
12:00 +25°C° 0 mm 4 m/S 743 mmHg 43%
13:00 +26°C° 0 mm 4 m/S 742 mmHg 40%
14:00 +26°C° 0 mm 4 m/S 742 mmHg 41%
15:00 +26°C° 0 mm 4 m/S 742 mmHg 42%
16:00 +26°C° 0 mm 4 m/S 742 mmHg 43%
17:00 +23°C° 0 mm 4 m/S 742 mmHg 51%
18:00 +22°C° 0 mm 3 m/S 742 mmHg 59%
19:00 +20°C° 0 mm 3 m/S 742 mmHg 67%
20:00 +19°C° 0 mm 3 m/S 742 mmHg 73%
21:00 +18°C° 0 mm 3 m/S 742 mmHg 78%
22:00 +17°C° 0 mm 3 m/S 742 mmHg 84%
23:00 +16°C° 0 mm 3 m/S 742 mmHg 86%

18 Juni, Freitag

Zeit Temperatur Niederschläge Wind Luftdruck Luftfeuchtigkeit
00:00 +16°C° 0 mm 3 m/S 742 mmHg 88%
01:00 +16°C° 0 mm 3 m/S 742 mmHg 89%
02:00 +16°C° 0 mm 3 m/S 741 mmHg 90%
03:00 +16°C° 0 mm 3 m/S 741 mmHg 91%
04:00 +16°C° 0 mm 3 m/S 741 mmHg 91%
05:00 +18°C° 0 mm 3 m/S 741 mmHg 85%
06:00 +20°C° 0 mm 4 m/S 741 mmHg 79%
07:00 +22°C° 0 mm 5 m/S 742 mmHg 73%
08:00 +23°C° 0 mm 5 m/S 742 mmHg 68%
09:00 +25°C° 0 mm 5 m/S 741 mmHg 63%
10:00 +27°C° 0 mm 5 m/S 741 mmHg 59%
11:00 +28°C° 0 mm 5 m/S 741 mmHg 55%
12:00 +28°C° 0 mm 5 m/S 741 mmHg 52%
13:00 +29°C° 0 mm 5 m/S 741 mmHg 49%
14:00 +29°C° 0 mm 5 m/S 741 mmHg 50%
15:00 +29°C° 0 mm 5 m/S 741 mmHg 51%
16:00 +29°C° 0 mm 5 m/S 741 mmHg 51%
17:00 +28°C° 0 mm 4 m/S 741 mmHg 59%
18:00 +26°C° 0 mm 4 m/S 741 mmHg 67%
19:00 +25°C° 0 mm 4 m/S 741 mmHg 74%
20:00 +22°C° 0 mm 4 m/S 741 mmHg 79%
21:00 +21°C° 0 mm 3 m/S 741 mmHg 84%
22:00 +20°C° 0 mm 3 m/S 741 mmHg 88%
23:00 +19°C° 0 mm 3 m/S 742 mmHg 90%

19 Juni, Samstag

Zeit Temperatur Niederschläge Wind Luftdruck Luftfeuchtigkeit
00:00 +19°C° 0 mm 3 m/S 742 mmHg 92%
01:00 +18°C° 0 mm 3 m/S 742 mmHg 94%
02:00 +18°C° 0 mm 3 m/S 742 mmHg 94%
03:00 +18°C° 0 mm 2 m/S 742 mmHg 95%
04:00 +17°C° 0 mm 2 m/S 742 mmHg 96%
05:00 +19°C° 0 mm 3 m/S 742 mmHg 89%
06:00 +20°C° 0 mm 4 m/S 742 mmHg 81%
07:00 +22°C° 0 mm 5 m/S 742 mmHg 74%
08:00 +23°C° 0 mm 5 m/S 742 mmHg 69%
09:00 +25°C° 0 mm 5 m/S 742 mmHg 64%
10:00 +27°C° 0 mm 5 m/S 742 mmHg 59%
11:00 +27°C° 0 mm 5 m/S 742 mmHg 58%
12:00 +27°C° 0 mm 4 m/S 742 mmHg 57%
13:00 +27°C° 0 mm 4 m/S 742 mmHg 56%
14:00 +27°C° 0 mm 5 m/S 742 mmHg 55%
15:00 +28°C° 0 mm 5 m/S 741 mmHg 54%
16:00 +28°C° 0 mm 6 m/S 741 mmHg 53%
17:00 +26°C° 0 mm 5 m/S 741 mmHg 60%
18:00 +25°C° 0 mm 5 m/S 741 mmHg 68%
19:00 +22°C° 0 mm 5 m/S 741 mmHg 75%
20:00 +21°C° 0 mm 4 m/S 741 mmHg 80%
21:00 +20°C° 0 mm 3 m/S 742 mmHg 85%
22:00 +18°C° 0 mm 2 m/S 742 mmHg 90%
23:00 +18°C° 0 mm 3 m/S 742 mmHg 91%
Mehr zeigen

Wir brauchen deine Erlaubnis

Meteoprog und unser Service Anbieter werden persönliche Daten aufbewahren, so wie Cookies, Geräte Bezeichnung oder ähnliche Technologien von deinem Gerät und Prozess, so wie Persönliche Daten Inhalte und Werbungen, genauso wie social Media und den Verkehr zu analysieren.

  • Aufbewahrung und/oder Zugang zu deiner Geräte Informationen.

    Cookies, Geräte Bezeichnung oder andere Informationen, können aufbewahrt oder Zugang zu deinem Gerät erhalten, für den Grund, der oben angegeben wird.

  • Personalisierte Werbung und Inhalte, Messungen, Einblick in das Publikum und Produkt Entwicklung.

    Werbungen und Inhalte können personalisiert werden, basierend auf ein Profil. Mehr Daten können besser personalisierte Werbungen und Inhalte hinzufügen. Werbung und Inhalte können gezeigt und gemessen werden. Einblicke über das Publikum, welche die Werbung gesehen haben und den Inhalt, können abgeleitet werden. So wie Daten können genutzt werden, um es zu verbessern oder die Benutzer Erfahrung zu verbessern das System und die Software.

Wenn du “Ich stimme zu” klickst, erlaubst du uns, die Cookies zu benutzen die Geräte Bezeichnung, den Web oder ähnliche Technologien zu benutzen. Deine Settings, können in deinem Gerät bei deinem Browser geändert werden.

Für den bestimmten Zweck, berechtigten Interessen beruhen darauf, mehr als auf den Inhalt. Du kannst mehr darüber in unseren Privaten und Cookie Politik lesen.